Time,TemperatureF,DewpointF,PressureIn,WindDirection,WindDirectionDegrees,WindSpeedMPH,WindSpeedGustMPH,Humidity,HourlyPrecipIn,Conditions,Clouds,dailyrainin,SoftwareType,DateUTC
2013-01-29 00:07:00,44.1,43.3,29.91,ESE,114,2.0,2.0,97,0.00,,---,0.00,VWS V14.01,2013-01-29 05:07:00,
2013-01-29 00:12:00,44.2,43.4,29.91,ESE,114,0.0,2.0,97,0.00,,---,0.00,VWS V14.01,2013-01-29 05:12:00,
2013-01-29 00:17:00,44.2,43.4,29.90,ESE,114,0.0,2.0,97,0.00,,---,0.00,VWS V14.01,2013-01-29 05:17:00,
2013-01-29 00:22:00,44.6,43.8,29.90,ESE,114,0.0,2.0,97,0.00,,---,0.00,VWS V14.01,2013-01-29 05:22:00,
2013-01-29 00:27:00,44.8,44.0,29.90,ESE,114,0.0,2.0,97,0.00,,---,0.00,VWS V14.01,2013-01-29 05:27:00,
2013-01-29 00:32:00,44.9,44.1,29.90,ESE,117,0.0,2.0,97,0.00,,---,0.00,VWS V14.01,2013-01-29 05:32:00,
2013-01-29 00:37:00,44.8,44.0,29.90,ESE,119,2.0,2.0,97,0.00,,---,0.00,VWS V14.01,2013-01-29 05:37:00,
2013-01-29 00:42:00,45.1,44.3,29.89,South,180,1.0,4.0,97,0.00,,---,0.00,VWS V14.01,2013-01-29 05:42:00,
2013-01-29 00:47:00,45.2,44.4,29.89,South,180,0.0,4.0,97,0.00,,---,0.00,VWS V14.01,2013-01-29 05:47:00,
2013-01-29 00:52:00,45.2,44.4,29.89,South,180,1.0,4.0,97,0.00,,---,0.00,VWS V14.01,2013-01-29 05:52:00,
2013-01-29 00:57:00,45.6,44.8,29.89,South,180,0.0,4.0,97,0.00,,---,0.00,VWS V14.01,2013-01-29 05:57:00,
2013-01-29 01:00:00,45.6,44.8,29.89,South,170,1.0,4.0,97,0.00,,---,0.00,VWS V14.01,2013-01-29 06:00:00,
2013-01-29 01:07:00,46.0,45.2,29.89,SSE,167,1.0,2.0,97,0.00,,---,0.00,VWS V14.01,2013-01-29 06:07:00,
2013-01-29 01:12:00,46.2,45.4,29.88,SSE,163,1.0,2.0,97,0.00,,---,0.00,VWS V14.01,2013-01-29 06:12:00,
2013-01-29 01:17:00,46.5,45.7,29.87,SSE,156,0.0,2.0,97,0.00,,---,0.00,VWS V14.01,2013-01-29 06:17:00,
2013-01-29 01:22:00,46.4,45.6,29.88,SSE,156,1.0,2.0,97,0.00,,---,0.00,VWS V14.01,2013-01-29 06:22:00,
2013-01-29 01:27:00,46.5,45.7,29.87,SE,134,2.0,3.0,97,0.00,,---,0.00,VWS V14.01,2013-01-29 06:27:00,
2013-01-29 01:32:00,46.7,45.9,29.86,SE,144,2.0,2.0,97,0.00,,---,0.00,VWS V14.01,2013-01-29 06:32:00,
2013-01-29 01:37:00,46.7,45.9,29.86,SE,128,0.0,2.0,97,0.00,,---,0.00,VWS V14.01,2013-01-29 06:37:00,
2013-01-29 01:42:00,46.8,46.0,29.86,SE,141,1.0,2.0,97,0.00,,---,0.00,VWS V14.01,2013-01-29 06:42:00,
2013-01-29 01:47:00,46.8,46.0,29.86,ESE,120,3.0,3.0,97,0.00,,---,0.00,VWS V14.01,2013-01-29 06:47:00,
2013-01-29 01:52:00,47.4,46.6,29.85,East,99,1.0,3.0,97,0.00,,---,0.00,VWS V14.01,2013-01-29 06:52:00,
2013-01-29 01:57:00,47.5,46.7,29.86,SSE,160,0.0,5.0,97,0.00,,---,0.00,VWS V14.01,2013-01-29 06:57:00,
2013-01-29 02:02:00,47.6,46.8,29.86,SSE,156,1.0,3.0,97,0.00,,---,0.00,VWS V14.01,2013-01-29 07:02:00,
2013-01-29 02:07:00,47.7,46.9,29.86,SE,137,1.0,4.0,97,0.00,,---,0.00,VWS V14.01,2013-01-29 07:07:00,
2013-01-29 02:12:00,47.8,47.0,29.85,SSW,207,5.0,6.0,97,0.00,,---,0.00,VWS V14.01,2013-01-29 07:12:00,
2013-01-29 02:18:00,48.3,47.5,29.85,South,175,6.0,7.0,97,0.00,,---,0.00,VWS V14.01,2013-01-29 07:18:00,
2013-01-29 02:23:00,48.2,47.4,29.84,SSE,152,2.0,7.0,97,0.00,,---,0.00,VWS V14.01,2013-01-29 07:23:00,
2013-01-29 02:28:00,48.3,47.5,29.84,South,173,6.0,7.0,97,0.00,,---,0.00,VWS V14.01,2013-01-29 07:28:00,
2013-01-29 02:33:00,48.6,47.8,29.84,South,175,5.0,6.0,97,0.00,,---,0.00,VWS V14.01,2013-01-29 07:33:00,
2013-01-29 02:38:00,48.7,47.9,29.84,SSE,149,5.0,9.0,97,0.00,,---,0.00,VWS V14.01,2013-01-29 07:38:00,
2013-01-29 02:43:00,48.6,47.8,29.83,SSE,152,6.0,10.0,97,0.01,,---,0.01,VWS V14.01,2013-01-29 07:43:00,
2013-01-29 02:48:00,48.9,48.1,29.83,South,171,4.0,10.0,97,0.02,,---,0.02,VWS V14.01,2013-01-29 07:48:00,
2013-01-29 02:53:00,49.0,48.2,29.83,South,175,12.0,14.0,97,0.03,,---,0.03,VWS V14.01,2013-01-29 07:53:00,
2013-01-29 02:58:00,48.9,48.1,29.83,SSE,161,4.0,14.0,97,0.03,,---,0.03,VWS V14.01,2013-01-29 07:58:00,
2013-01-29 03:03:00,48.7,47.9,29.82,SE,146,4.0,7.0,97,0.03,,---,0.03,VWS V14.01,2013-01-29 08:03:00,
2013-01-29 03:08:00,48.9,48.1,29.82,SSE,150,4.0,11.0,97,0.03,,---,0.03,VWS V14.01,2013-01-29 08:08:00,
2013-01-29 03:13:00,48.6,47.8,29.82,SSE,167,4.0,11.0,97,0.03,,---,0.03,VWS V14.01,2013-01-29 08:13:00,
2013-01-29 03:18:00,48.8,48.0,29.81,SSW,194,6.0,11.0,97,0.03,,---,0.03,VWS V14.01,2013-01-29 08:18:00,
2013-01-29 03:23:00,49.0,48.2,29.82,SSW,199,7.0,12.0,97,0.03,,---,0.03,VWS V14.01,2013-01-29 08:23:00,
2013-01-29 03:28:00,49.0,48.2,29.81,South,175,4.0,12.0,97,0.03,,---,0.03,VWS V14.01,2013-01-29 08:28:00,
2013-01-29 03:33:00,49.2,48.7,29.81,South,185,3.0,10.0,98,0.03,,---,0.03,VWS V14.01,2013-01-29 08:33:00,
2013-01-29 03:38:00,49.7,48.9,29.81,South,191,9.0,12.0,97,0.03,,---,0.03,VWS V14.01,2013-01-29 08:38:00,
2013-01-29 03:43:00,50.6,50.1,29.81,South,184,8.0,16.0,98,0.03,,---,0.03,VWS V14.01,2013-01-29 08:43:00,
2013-01-29 03:48:00,51.2,50.7,29.81,South,180,7.0,16.0,98,0.03,,---,0.03,VWS V14.01,2013-01-29 08:48:00,
2013-01-29 03:53:00,51.5,51.0,29.80,South,178,10.0,16.0,98,0.03,,---,0.03,VWS V14.01,2013-01-29 08:53:00,
2013-01-29 03:58:00,51.9,51.1,29.80,South,180,13.0,16.0,97,0.03,,---,0.03,VWS V14.01,2013-01-29 08:58:00,
2013-01-29 04:03:00,52.1,51.3,29.80,SSW,194,11.0,15.0,97,0.00,,---,0.03,VWS V14.01,2013-01-29 09:03:00,
2013-01-29 04:08:00,52.2,51.7,29.80,South,172,11.0,15.0,98,0.00,,---,0.03,VWS V14.01,2013-01-29 09:08:00,
2013-01-29 04:13:00,52.1,51.3,29.80,South,189,8.0,16.0,97,0.00,,---,0.03,VWS V14.01,2013-01-29 09:13:00,
2013-01-29 04:18:00,52.2,51.7,29.79,SSW,197,10.0,16.0,98,0.00,,---,0.03,VWS V14.01,2013-01-29 09:18:00,
2013-01-29 04:23:00,52.2,51.7,29.79,South,173,7.0,16.0,98,0.00,,---,0.03,VWS V14.01,2013-01-29 09:23:00,
2013-01-29 04:28:00,52.4,51.8,29.78,South,171,10.0,18.0,98,0.00,,---,0.03,VWS V14.01,2013-01-29 09:28:00,
2013-01-29 04:33:00,52.3,51.8,29.78,South,182,11.0,13.0,98,0.00,,---,0.03,VWS V14.01,2013-01-29 09:33:00,
2013-01-29 04:38:00,52.4,51.8,29.78,South,178,10.0,16.0,98,0.00,,---,0.03,VWS V14.01,2013-01-29 09:38:00,
2013-01-29 04:43:00,52.3,51.8,29.77,South,184,14.0,16.0,98,0.00,,---,0.03,VWS V14.01,2013-01-29 09:43:00,
2013-01-29 04:48:00,52.5,52.0,29.77,SSW,202,8.0,18.0,98,0.00,,---,0.03,VWS V14.01,2013-01-29 09:48:00,
2013-01-29 04:53:00,52.6,51.8,29.77,SSW,196,14.0,18.0,97,0.00,,---,0.03,VWS V14.01,2013-01-29 09:53:00,
2013-01-29 04:58:00,52.7,51.9,29.77,SSW,194,9.0,18.0,97,0.00,,---,0.03,VWS V14.01,2013-01-29 09:58:00,
2013-01-29 05:03:00,52.7,51.9,29.77,SSW,198,17.0,18.0,97,0.00,,---,0.03,VWS V14.01,2013-01-29 10:03:00,
2013-01-29 05:08:00,52.8,52.2,29.76,SSW,196,8.0,18.0,98,0.00,,---,0.03,VWS V14.01,2013-01-29 10:08:00,
2013-01-29 05:13:00,52.8,52.2,29.76,South,185,13.0,19.0,98,0.00,,---,0.03,VWS V14.01,2013-01-29 10:13:00,
2013-01-29 05:18:00,53.0,52.5,29.76,SSE,149,7.0,21.0,98,0.00,,---,0.03,VWS V14.01,2013-01-29 10:18:00,
2013-01-29 05:23:00,53.0,52.5,29.76,SSW,198,11.0,21.0,98,0.00,,---,0.03,VWS V14.01,2013-01-29 10:23:00,
2013-01-29 05:28:00,52.9,52.3,29.76,SSW,204,7.0,21.0,98,0.00,,---,0.03,VWS V14.01,2013-01-29 10:28:00,
2013-01-29 05:33:00,53.0,52.5,29.76,South,190,12.0,16.0,98,0.00,,---,0.03,VWS V14.01,2013-01-29 10:33:00,
2013-01-29 05:38:00,53.0,52.5,29.76,South,188,12.0,19.0,98,0.00,,---,0.03,VWS V14.01,2013-01-29 10:38:00,
2013-01-29 05:43:00,53.0,52.5,29.75,South,169,15.0,19.0,98,0.00,,---,0.03,VWS V14.01,2013-01-29 10:43:00,
2013-01-29 05:48:00,52.9,52.3,29.76,SSW,196,10.0,21.0,98,0.00,,---,0.03,VWS V14.01,2013-01-29 10:48:00,
2013-01-29 05:53:00,52.8,52.2,29.75,SSW,196,12.0,21.0,98,0.00,,---,0.03,VWS V14.01,2013-01-29 10:53:00,
2013-01-29 05:58:00,52.8,52.2,29.75,SSE,167,11.0,21.0,98,0.00,,---,0.03,VWS V14.01,2013-01-29 10:58:00,
2013-01-29 06:03:00,52.8,52.2,29.75,South,179,15.0,17.0,98,0.00,,---,0.03,VWS V14.01,2013-01-29 11:03:00,
2013-01-29 06:08:00,52.8,52.2,29.75,South,188,10.0,18.0,98,0.00,,---,0.03,VWS V14.01,2013-01-29 11:08:00,
2013-01-29 06:13:00,52.7,52.2,29.75,South,186,11.0,18.0,98,0.00,,---,0.03,VWS V14.01,2013-01-29 11:13:00,
2013-01-29 06:18:00,52.6,52.0,29.75,SSW,202,12.0,18.0,98,0.00,,---,0.03,VWS V14.01,2013-01-29 11:18:00,
2013-01-29 06:23:00,52.7,52.2,29.75,South,180,9.0,21.0,98,0.00,,---,0.03,VWS V14.01,2013-01-29 11:23:00,
2013-01-29 06:28:00,52.8,52.2,29.75,South,187,13.0,21.0,98,0.00,,---,0.03,VWS V14.01,2013-01-29 11:28:00,
2013-01-29 06:33:00,52.7,52.2,29.75,South,175,16.0,18.0,98,0.00,,---,0.03,VWS V14.01,2013-01-29 11:33:00,
2013-01-29 06:38:00,52.7,52.2,29.75,SSW,209,9.0,18.0,98,0.00,,---,0.03,VWS V14.01,2013-01-29 11:38:00,
2013-01-29 06:43:00,52.8,52.2,29.75,South,182,12.0,18.0,98,0.00,,---,0.03,VWS V14.01,2013-01-29 11:43:00,
2013-01-29 06:48:00,52.9,52.3,29.75,SSW,197,11.0,19.0,98,0.00,,---,0.03,VWS V14.01,2013-01-29 11:48:00,
2013-01-29 06:53:00,52.8,52.2,29.75,South,188,11.0,21.0,98,0.01,,---,0.04,VWS V14.01,2013-01-29 11:53:00,
2013-01-29 06:58:00,52.7,52.2,29.75,SSE,166,9.0,21.0,98,0.01,,---,0.04,VWS V14.01,2013-01-29 11:58:00,
2013-01-29 07:03:00,52.8,52.2,29.75,South,186,15.0,17.0,98,0.01,,---,0.04,VWS V14.01,2013-01-29 12:03:00,
2013-01-29 07:08:00,52.9,52.3,29.75,South,186,12.0,18.0,98,0.01,,---,0.04,VWS V14.01,2013-01-29 12:08:00,
2013-01-29 07:13:00,52.8,52.2,29.75,SSW,192,11.0,19.0,98,0.01,,---,0.04,VWS V14.01,2013-01-29 12:13:00,
2013-01-29 07:18:00,52.8,52.2,29.75,South,173,12.0,19.0,98,0.01,,---,0.04,VWS V14.01,2013-01-29 12:18:00,
2013-01-29 07:23:00,52.8,52.2,29.75,South,186,12.0,19.0,98,0.01,,---,0.04,VWS V14.01,2013-01-29 12:23:00,
2013-01-29 07:28:00,52.8,52.2,29.76,South,182,11.0,19.0,98,0.01,,---,0.04,VWS V14.01,2013-01-29 12:28:00,
2013-01-29 07:33:00,52.7,52.2,29.76,South,188,12.0,13.0,98,0.01,,---,0.04,VWS V14.01,2013-01-29 12:33:00,
2013-01-29 07:38:00,52.8,52.2,29.76,South,182,8.0,13.0,98,0.02,,---,0.05,VWS V14.01,2013-01-29 12:38:00,
2013-01-29 07:43:00,52.9,52.3,29.75,SSE,168,7.0,16.0,98,0.03,,---,0.06,VWS V14.01,2013-01-29 12:43:00,
2013-01-29 07:48:00,52.9,52.3,29.76,South,188,14.0,16.0,98,0.03,,---,0.06,VWS V14.01,2013-01-29 12:48:00,
2013-01-29 07:53:00,53.0,52.5,29.75,South,188,12.0,16.0,98,0.03,,---,0.06,VWS V14.01,2013-01-29 12:53:00,
2013-01-29 07:58:00,53.1,52.5,29.74,SSW,196,11.0,16.0,98,0.04,,---,0.07,VWS V14.01,2013-01-29 12:58:00,
2013-01-29 08:03:00,53.1,52.5,29.75,SSE,154,12.0,12.0,98,0.03,,---,0.07,VWS V14.01,2013-01-29 13:03:00,
2013-01-29 08:08:00,53.1,52.5,29.74,SSW,204,15.0,15.0,98,0.03,,---,0.07,VWS V14.01,2013-01-29 13:08:00,
2013-01-29 08:13:00,53.3,52.8,29.74,SSW,192,7.0,16.0,98,0.03,,---,0.07,VWS V14.01,2013-01-29 13:13:00,
2013-01-29 08:18:00,53.5,53.0,29.74,South,186,11.0,18.0,98,0.03,,---,0.07,VWS V14.01,2013-01-29 13:18:00,
2013-01-29 08:23:00,53.6,53.0,29.74,South,175,13.0,20.0,98,0.03,,---,0.07,VWS V14.01,2013-01-29 13:23:00,
2013-01-29 08:28:00,53.7,53.2,29.74,South,171,22.0,22.0,98,0.03,,---,0.07,VWS V14.01,2013-01-29 13:28:00,
2013-01-29 08:33:00,53.9,53.3,29.74,SSW,194,11.0,18.0,98,0.04,,---,0.08,VWS V14.01,2013-01-29 13:33:00,
2013-01-29 08:38:00,54.0,53.5,29.73,SSW,195,16.0,18.0,98,0.04,,---,0.08,VWS V14.01,2013-01-29 13:38:00,
2013-01-29 08:43:00,54.1,53.5,29.74,South,178,12.0,18.0,98,0.04,,---,0.08,VWS V14.01,2013-01-29 13:43:00,
2013-01-29 08:48:00,54.2,53.7,29.74,SSW,198,9.0,22.0,98,0.04,,---,0.08,VWS V14.01,2013-01-29 13:48:00,
2013-01-29 08:53:00,54.2,53.7,29.73,South,188,15.0,22.0,98,0.04,,---,0.08,VWS V14.01,2013-01-29 13:53:00,
2013-01-29 08:58:00,54.3,53.8,29.74,South,184,9.0,22.0,98,0.04,,---,0.08,VWS V14.01,2013-01-29 13:58:00,
2013-01-29 09:03:00,54.2,53.7,29.73,SSW,209,11.0,13.0,98,0.01,,---,0.08,VWS V14.01,2013-01-29 14:03:00,
2013-01-29 09:08:00,54.2,53.7,29.73,SSW,196,10.0,16.0,98,0.01,,---,0.08,VWS V14.01,2013-01-29 14:08:00,
2013-01-29 09:14:00,54.2,53.7,29.74,SSW,196,7.0,17.0,98,0.01,,---,0.08,VWS V14.01,2013-01-29 14:14:00,
2013-01-29 09:19:00,54.3,53.8,29.73,SSW,198,12.0,17.0,98,0.01,,---,0.08,VWS V14.01,2013-01-29 14:19:00,
2013-01-29 09:24:00,54.2,53.7,29.74,SSW,194,11.0,17.0,98,0.01,,---,0.08,VWS V14.01,2013-01-29 14:24:00,
2013-01-29 09:29:00,54.2,53.7,29.74,South,169,12.0,17.0,98,0.01,,---,0.08,VWS V14.01,2013-01-29 14:29:00,
2013-01-29 09:34:00,54.5,54.0,29.74,South,180,11.0,21.0,98,0.01,,---,0.08,VWS V14.01,2013-01-29 14:34:00,
2013-01-29 09:39:00,54.5,54.0,29.74,South,183,7.0,21.0,98,0.01,,---,0.08,VWS V14.01,2013-01-29 14:39:00,
2013-01-29 09:44:00,54.6,54.0,29.74,SSW,192,12.0,21.0,98,0.01,,---,0.08,VWS V14.01,2013-01-29 14:44:00,
2013-01-29 09:49:00,54.5,54.0,29.74,SSW,193,8.0,21.0,98,0.01,,---,0.08,VWS V14.01,2013-01-29 14:49:00,
2013-01-29 09:54:00,54.6,54.0,29.74,South,190,8.0,21.0,98,0.01,,---,0.08,VWS V14.01,2013-01-29 14:54:00,
2013-01-29 09:59:00,54.6,54.0,29.73,SSW,192,10.0,21.0,98,0.01,,---,0.08,VWS V14.01,2013-01-29 14:59:00,
2013-01-29 10:04:00,54.6,54.0,29.73,South,169,11.0,15.0,98,0.00,,---,0.08,VWS V14.01,2013-01-29 15:04:00,
2013-01-29 10:09:00,54.6,54.0,29.74,South,176,10.0,17.0,98,0.00,,---,0.08,VWS V14.01,2013-01-29 15:09:00,
2013-01-29 10:14:00,54.6,54.0,29.75,SSW,197,7.0,17.0,98,0.00,,---,0.08,VWS V14.01,2013-01-29 15:14:00,
2013-01-29 10:19:00,54.7,54.2,29.76,SW,219,9.0,19.0,98,0.00,,---,0.08,VWS V14.01,2013-01-29 15:19:00,
2013-01-29 10:24:00,54.7,54.2,29.76,South,186,8.0,19.0,98,0.02,,---,0.10,VWS V14.01,2013-01-29 15:24:00,
2013-01-29 10:29:00,54.7,54.2,29.76,SSW,211,12.0,19.0,98,0.04,,---,0.12,VWS V14.01,2013-01-29 15:29:00,
2013-01-29 10:34:00,54.7,54.2,29.75,SSW,193,8.0,14.0,98,0.04,,---,0.12,VWS V14.01,2013-01-29 15:34:00,
2013-01-29 10:39:00,54.7,54.2,29.75,SSW,202,8.0,14.0,98,0.04,,---,0.12,VWS V14.01,2013-01-29 15:39:00,
2013-01-29 10:44:00,54.8,54.2,29.74,South,169,6.0,15.0,98,0.04,,---,0.12,VWS V14.01,2013-01-29 15:44:00,
2013-01-29 10:49:00,54.8,54.2,29.74,SSW,197,10.0,17.0,98,0.04,,---,0.12,VWS V14.01,2013-01-29 15:49:00,
2013-01-29 10:54:00,55.0,54.5,29.74,SSW,203,10.0,17.0,98,0.04,,---,0.12,VWS V14.01,2013-01-29 15:54:00,
2013-01-29 10:59:00,55.0,54.5,29.73,South,182,9.0,17.0,98,0.04,,---,0.12,VWS V14.01,2013-01-29 15:59:00,
2013-01-29 11:04:00,55.1,54.5,29.73,SSW,203,8.0,14.0,98,0.04,,---,0.12,VWS V14.01,2013-01-29 16:04:00,
2013-01-29 11:09:00,55.2,54.7,29.73,South,188,14.0,17.0,98,0.04,,---,0.12,VWS V14.01,2013-01-29 16:09:00,
2013-01-29 11:14:00,55.2,54.7,29.73,South,181,7.0,17.0,98,0.04,,---,0.12,VWS V14.01,2013-01-29 16:14:00,
2013-01-29 11:19:00,55.3,54.8,29.73,South,187,8.0,17.0,98,0.04,,---,0.12,VWS V14.01,2013-01-29 16:19:00,
2013-01-29 11:24:00,55.4,54.8,29.73,SSW,196,10.0,17.0,98,0.04,,---,0.12,VWS V14.01,2013-01-29 16:24:00,
2013-01-29 11:29:00,55.5,55.0,29.73,South,188,10.0,20.0,98,0.04,,---,0.12,VWS V14.01,2013-01-29 16:29:00,
2013-01-29 11:34:00,55.5,55.0,29.73,SSW,194,7.0,14.0,98,0.01,,---,0.13,VWS V14.01,2013-01-29 16:34:00,
2013-01-29 11:39:00,55.6,55.0,29.72,South,182,13.0,15.0,98,0.01,,---,0.13,VWS V14.01,2013-01-29 16:39:00,
2013-01-29 11:44:00,55.8,55.2,29.72,SSW,196,10.0,16.0,98,0.01,,---,0.13,VWS V14.01,2013-01-29 16:44:00,
2013-01-29 11:49:00,55.8,55.0,29.72,SSW,193,9.0,16.0,97,0.01,,---,0.13,VWS V14.01,2013-01-29 16:49:00,
2013-01-29 11:54:00,55.7,54.9,29.72,SSW,211,8.0,16.0,97,0.01,,---,0.13,VWS V14.01,2013-01-29 16:54:00,
2013-01-29 11:59:00,55.8,55.0,29.72,South,183,11.0,16.0,97,0.01,,---,0.13,VWS V14.01,2013-01-29 16:59:00,
2013-01-29 12:04:00,55.7,54.9,29.72,South,179,5.0,14.0,97,0.01,,---,0.13,VWS V14.01,2013-01-29 17:04:00,
2013-01-29 12:09:00,55.8,55.2,29.72,SSW,196,12.0,20.0,98,0.01,,---,0.13,VWS V14.01,2013-01-29 17:09:00,
2013-01-29 12:14:00,55.9,55.1,29.71,South,178,9.0,20.0,97,0.01,,---,0.13,VWS V14.01,2013-01-29 17:14:00,
2013-01-29 12:19:00,56.0,55.2,29.71,SSW,194,12.0,20.0,97,0.01,,---,0.13,VWS V14.01,2013-01-29 17:19:00,
2013-01-29 12:24:00,56.0,55.2,29.71,SSW,197,13.0,20.0,97,0.01,,---,0.13,VWS V14.01,2013-01-29 17:24:00,
2013-01-29 12:29:00,56.1,55.3,29.71,SSW,198,17.0,20.0,97,0.01,,---,0.13,VWS V14.01,2013-01-29 17:29:00,
2013-01-29 12:34:00,56.2,55.4,29.70,South,180,7.0,15.0,97,0.01,,---,0.13,VWS V14.01,2013-01-29 17:34:00,
2013-01-29 12:39:00,56.3,55.5,29.70,South,179,6.0,17.0,97,0.01,,---,0.13,VWS V14.01,2013-01-29 17:39:00,
2013-01-29 12:44:00,56.3,55.5,29.70,SSW,192,11.0,17.0,97,0.01,,---,0.13,VWS V14.01,2013-01-29 17:44:00,
2013-01-29 12:49:00,56.4,55.6,29.70,SSW,198,12.0,20.0,97,0.01,,---,0.13,VWS V14.01,2013-01-29 17:49:00,
2013-01-29 12:54:00,56.3,55.2,29.70,South,180,8.0,20.0,96,0.01,,---,0.13,VWS V14.01,2013-01-29 17:54:00,
2013-01-29 12:59:00,56.2,55.1,29.70,South,182,8.0,20.0,96,0.01,,---,0.13,VWS V14.01,2013-01-29 17:59:00,
2013-01-29 13:04:00,55.9,54.8,29.69,South,190,6.0,10.0,96,0.00,,---,0.13,VWS V14.01,2013-01-29 18:04:00,
2013-01-29 13:09:00,55.7,54.6,29.69,South,179,3.0,13.0,96,0.00,,---,0.13,VWS V14.01,2013-01-29 18:09:00,
2013-01-29 13:14:00,55.6,54.5,29.68,SE,140,7.0,13.0,96,0.00,,---,0.13,VWS V14.01,2013-01-29 18:14:00,
2013-01-29 13:19:00,55.5,54.4,29.68,South,177,5.0,13.0,96,0.01,,---,0.14,VWS V14.01,2013-01-29 18:19:00,
2013-01-29 13:24:00,55.2,54.1,29.67,SSE,168,6.0,13.0,96,0.01,,---,0.14,VWS V14.01,2013-01-29 18:24:00,
2013-01-29 13:29:00,55.0,53.9,29.68,South,183,8.0,13.0,96,0.01,,---,0.14,VWS V14.01,2013-01-29 18:29:00,
2013-01-29 13:34:00,54.8,53.7,29.67,SSE,159,1.0,12.0,96,0.01,,---,0.14,VWS V14.01,2013-01-29 18:34:00,
2013-01-29 13:39:00,54.7,53.6,29.67,SSE,166,4.0,12.0,96,0.01,,---,0.14,VWS V14.01,2013-01-29 18:39:00,
2013-01-29 13:44:00,54.6,53.5,29.67,SSE,167,4.0,12.0,96,0.01,,---,0.14,VWS V14.01,2013-01-29 18:44:00,
2013-01-29 13:49:00,54.5,53.4,29.66,SSE,165,4.0,12.0,96,0.01,,---,0.14,VWS V14.01,2013-01-29 18:49:00,
2013-01-29 13:54:00,54.5,53.4,29.66,South,188,6.0,12.0,96,0.01,,---,0.14,VWS V14.01,2013-01-29 18:54:00,
2013-01-29 13:59:00,54.6,53.5,29.65,SSE,166,3.0,12.0,96,0.01,,---,0.14,VWS V14.01,2013-01-29 18:59:00,
2013-01-29 14:04:00,54.6,53.5,29.65,South,182,10.0,10.0,96,0.01,,---,0.14,VWS V14.01,2013-01-29 19:04:00,
2013-01-29 14:09:00,54.6,53.5,29.65,South,169,9.0,14.0,96,0.01,,---,0.14,VWS V14.01,2013-01-29 19:09:00,
2013-01-29 14:14:00,54.8,53.7,29.65,South,186,10.0,14.0,96,0.03,,---,0.16,VWS V14.01,2013-01-29 19:14:00,
2013-01-29 14:19:00,54.9,54.1,29.64,South,184,7.0,14.0,97,0.07,,---,0.20,VWS V14.01,2013-01-29 19:19:00,
2013-01-29 14:24:00,54.9,54.1,29.64,South,177,9.0,14.0,97,0.07,,---,0.20,VWS V14.01,2013-01-29 19:24:00,
2013-01-29 14:29:00,54.9,54.1,29.64,SSW,192,7.0,14.0,97,0.07,,---,0.20,VWS V14.01,2013-01-29 19:29:00,
2013-01-29 14:34:00,55.0,53.9,29.64,South,184,5.0,13.0,96,0.06,,---,0.20,VWS V14.01,2013-01-29 19:34:00,
2013-01-29 14:39:00,55.0,53.9,29.64,South,180,10.0,14.0,96,0.06,,---,0.20,VWS V14.01,2013-01-29 19:39:00,
2013-01-29 14:44:00,55.1,54.0,29.63,South,182,7.0,14.0,96,0.06,,---,0.20,VWS V14.01,2013-01-29 19:44:00,
2013-01-29 14:49:00,55.1,54.0,29.63,SSW,196,7.0,14.0,96,0.06,,---,0.20,VWS V14.01,2013-01-29 19:49:00,
2013-01-29 14:54:00,55.2,54.1,29.64,SSW,205,10.0,14.0,96,0.06,,---,0.20,VWS V14.01,2013-01-29 19:54:00,
2013-01-29 14:59:00,55.3,54.2,29.63,SSE,166,11.0,14.0,96,0.13,,---,0.27,VWS V14.01,2013-01-29 19:59:00,
2013-01-29 15:04:00,55.6,54.5,29.62,South,186,15.0,15.0,96,0.17,,---,0.31,VWS V14.01,2013-01-29 20:04:00,
2013-01-29 15:09:00,55.7,54.6,29.62,SSW,194,9.0,15.0,96,0.17,,---,0.31,VWS V14.01,2013-01-29 20:09:00,
2013-01-29 15:14:00,55.8,54.7,29.62,SSW,197,13.0,15.0,96,0.17,,---,0.31,VWS V14.01,2013-01-29 20:14:00,
2013-01-29 15:19:00,55.9,54.8,29.62,South,170,6.0,16.0,96,0.17,,---,0.31,VWS V14.01,2013-01-29 20:19:00,
2013-01-29 15:24:00,56.0,54.9,29.62,South,184,11.0,16.0,96,0.17,,---,0.31,VWS V14.01,2013-01-29 20:24:00,
2013-01-29 15:29:00,56.1,55.0,29.63,South,176,13.0,16.0,96,0.17,,---,0.31,VWS V14.01,2013-01-29 20:29:00,
2013-01-29 15:34:00,56.2,55.1,29.62,South,188,12.0,18.0,96,0.16,,---,0.36,VWS V14.01,2013-01-29 20:34:00,
2013-01-29 15:39:00,56.2,55.1,29.62,SSW,193,14.0,18.0,96,0.16,,---,0.36,VWS V14.01,2013-01-29 20:39:00,
2013-01-29 15:44:00,56.3,55.2,29.61,South,173,10.0,18.0,96,0.17,,---,0.37,VWS V14.01,2013-01-29 20:44:00,
2013-01-29 15:49:00,56.2,55.1,29.60,South,171,7.0,18.0,96,0.18,,---,0.38,VWS V14.01,2013-01-29 20:49:00,
2013-01-29 15:54:00,56.3,55.2,29.61,South,186,13.0,18.0,96,0.19,,---,0.39,VWS V14.01,2013-01-29 20:54:00,
2013-01-29 15:59:00,56.4,55.0,29.61,South,178,8.0,18.0,95,0.19,,---,0.39,VWS V14.01,2013-01-29 20:59:00,
2013-01-29 16:04:00,56.5,55.4,29.61,South,175,12.0,17.0,96,0.10,,---,0.39,VWS V14.01,2013-01-29 21:04:00,
2013-01-29 16:09:00,56.7,55.3,29.61,South,185,8.0,17.0,95,0.10,,---,0.39,VWS V14.01,2013-01-29 21:09:00,
2013-01-29 16:15:00,56.8,55.4,29.61,SSE,156,11.0,20.0,95,0.10,,---,0.39,VWS V14.01,2013-01-29 21:15:00,
2013-01-29 16:20:00,57.0,55.6,29.61,SSW,203,14.0,20.0,95,0.10,,---,0.39,VWS V14.01,2013-01-29 21:20:00,
2013-01-29 16:25:00,57.0,55.6,29.61,South,174,14.0,20.0,95,0.10,,---,0.39,VWS V14.01,2013-01-29 21:25:00,
2013-01-29 16:30:00,56.9,55.2,29.60,South,179,9.0,20.0,94,0.10,,---,0.39,VWS V14.01,2013-01-29 21:30:00,
2013-01-29 16:35:00,56.8,55.1,29.60,SSW,192,5.0,17.0,94,0.07,,---,0.39,VWS V14.01,2013-01-29 21:35:00,
2013-01-29 16:40:00,56.5,54.8,29.60,South,172,12.0,17.0,94,0.07,,---,0.39,VWS V14.01,2013-01-29 21:40:00,
2013-01-29 16:45:00,56.4,55.0,29.60,South,169,7.0,17.0,95,0.07,,---,0.39,VWS V14.01,2013-01-29 21:45:00,
2013-01-29 16:50:00,56.3,54.9,29.60,SSE,157,7.0,17.0,95,0.07,,---,0.39,VWS V14.01,2013-01-29 21:50:00,
2013-01-29 16:55:00,56.1,54.7,29.60,South,171,5.0,17.0,95,0.07,,---,0.39,VWS V14.01,2013-01-29 21:55:00,
2013-01-29 17:00:00,56.0,54.6,29.60,SW,216,8.0,17.0,95,0.07,,---,0.39,VWS V14.01,2013-01-29 22:00:00,
2013-01-29 17:05:00,55.9,54.5,29.60,South,177,10.0,11.0,95,0.01,,---,0.40,VWS V14.01,2013-01-29 22:05:00,
2013-01-29 17:10:00,55.8,54.4,29.60,South,173,3.0,13.0,95,0.03,,---,0.42,VWS V14.01,2013-01-29 22:10:00,
2013-01-29 17:15:00,55.8,54.4,29.60,South,178,11.0,13.0,95,0.06,,---,0.45,VWS V14.01,2013-01-29 22:15:00,
2013-01-29 17:20:00,55.9,54.8,29.60,South,186,8.0,15.0,96,0.06,,---,0.45,VWS V14.01,2013-01-29 22:20:00,
2013-01-29 17:25:00,55.8,54.4,29.60,SSE,164,5.0,15.0,95,0.06,,---,0.45,VWS V14.01,2013-01-29 22:25:00,
2013-01-29 17:30:00,55.8,54.7,29.59,SSE,165,4.0,18.0,96,0.07,,---,0.46,VWS V14.01,2013-01-29 22:30:00,
2013-01-29 17:35:00,55.8,54.4,29.60,South,181,6.0,12.0,95,0.08,,---,0.47,VWS V14.01,2013-01-29 22:35:00,
2013-01-29 17:40:00,55.8,54.4,29.59,SSE,163,9.0,18.0,95,0.09,,---,0.48,VWS V14.01,2013-01-29 22:40:00,
2013-01-29 17:45:00,55.7,54.3,29.58,South,182,3.0,18.0,95,0.11,,---,0.50,VWS V14.01,2013-01-29 22:45:00,
2013-01-29 17:50:00,55.7,54.6,29.58,SSE,159,2.0,18.0,96,0.11,,---,0.50,VWS V14.01,2013-01-29 22:50:00,
2013-01-29 17:55:00,55.6,54.5,29.59,South,183,6.0,18.0,96,0.11,,---,0.50,VWS V14.01,2013-01-29 22:55:00,
2013-01-29 18:00:00,55.6,54.5,29.58,South,186,7.0,18.0,96,0.14,,---,0.53,VWS V14.01,2013-01-29 23:00:00,
2013-01-29 18:05:00,55.6,54.5,29.58,South,169,5.0,11.0,96,0.15,,---,0.54,VWS V14.01,2013-01-29 23:05:00,
2013-01-29 18:10:00,55.7,54.6,29.58,SSE,163,4.0,12.0,96,0.15,,---,0.54,VWS V14.01,2013-01-29 23:10:00,
2013-01-29 18:15:00,55.6,54.5,29.57,SSE,157,5.0,18.0,96,0.16,,---,0.55,VWS V14.01,2013-01-29 23:15:00,
2013-01-29 18:20:00,55.8,54.7,29.58,South,188,9.0,18.0,96,0.16,,---,0.55,VWS V14.01,2013-01-29 23:20:00,
2013-01-29 18:25:00,55.7,54.3,29.57,SSW,202,6.0,18.0,95,0.16,,---,0.55,VWS V14.01,2013-01-29 23:25:00,
2013-01-29 18:30:00,55.7,54.3,29.57,SE,146,3.0,18.0,95,0.17,,---,0.56,VWS V14.01,2013-01-29 23:30:00,
2013-01-29 18:35:00,55.7,54.3,29.58,South,190,7.0,16.0,95,0.10,,---,0.56,VWS V14.01,2013-01-29 23:35:00,
2013-01-29 18:40:00,55.6,54.2,29.57,SSE,157,5.0,16.0,95,0.12,,---,0.58,VWS V14.01,2013-01-29 23:40:00,
2013-01-29 18:45:00,55.7,54.6,29.56,South,182,6.0,16.0,96,0.12,,---,0.58,VWS V14.01,2013-01-29 23:45:00,
2013-01-29 18:50:00,55.7,54.3,29.56,SSE,162,5.0,16.0,95,0.12,,---,0.58,VWS V14.01,2013-01-29 23:50:00,
2013-01-29 18:55:00,55.8,54.4,29.56,SW,215,10.0,16.0,95,0.13,,---,0.59,VWS V14.01,2013-01-29 23:55:00,
2013-01-29 19:00:00,55.9,54.5,29.55,SSE,160,5.0,5.0,95,0.06,,---,0.59,VWS V14.01,2013-01-30 00:00:00,
2013-01-29 19:05:00,55.9,54.5,29.55,SE,130,6.0,16.0,95,0.06,,---,0.59,VWS V14.01,2013-01-30 00:05:00,
2013-01-29 19:10:00,56.0,54.6,29.55,SSE,163,8.0,16.0,95,0.06,,---,0.59,VWS V14.01,2013-01-30 00:10:00,
2013-01-29 19:15:00,56.1,54.4,29.54,SE,130,7.0,16.0,94,0.06,,---,0.59,VWS V14.01,2013-01-30 00:15:00,
2013-01-29 19:20:00,56.1,54.4,29.54,SSE,151,3.0,16.0,94,0.06,,---,0.59,VWS V14.01,2013-01-30 00:20:00,
2013-01-29 19:25:00,56.1,54.4,29.54,SSW,195,3.0,16.0,94,0.06,,---,0.59,VWS V14.01,2013-01-30 00:25:00,
2013-01-29 19:30:00,56.2,54.5,29.53,SSE,158,4.0,5.0,94,0.03,,---,0.59,VWS V14.01,2013-01-30 00:30:00,
2013-01-29 19:35:00,56.3,54.6,29.53,South,180,3.0,12.0,94,0.03,,---,0.59,VWS V14.01,2013-01-30 00:35:00,
2013-01-29 19:40:00,56.2,54.5,29.53,SE,143,3.0,12.0,94,0.03,,---,0.59,VWS V14.01,2013-01-30 00:40:00,
2013-01-29 19:45:00,56.2,54.5,29.53,South,188,8.0,13.0,94,0.03,,---,0.59,VWS V14.01,2013-01-30 00:45:00,
2013-01-29 19:50:00,56.1,54.1,29.52,SSE,157,2.0,13.0,93,0.03,,---,0.59,VWS V14.01,2013-01-30 00:50:00,
2013-01-29 19:55:00,56.0,54.0,29.52,SE,128,6.0,13.0,93,0.03,,---,0.59,VWS V14.01,2013-01-30 00:55:00,
2013-01-29 20:00:00,56.0,54.0,29.51,SSE,156,4.0,4.0,93,0.00,,---,0.59,VWS V14.01,2013-01-30 01:00:00,
2013-01-29 20:05:00,56.1,54.1,29.51,SE,138,4.0,12.0,93,0.00,,---,0.59,VWS V14.01,2013-01-30 01:05:00,
2013-01-29 20:10:00,56.1,54.1,29.50,South,190,4.0,12.0,93,0.00,,---,0.59,VWS V14.01,2013-01-30 01:10:00,
2013-01-29 20:15:00,56.2,54.2,29.50,SSE,165,10.0,16.0,93,0.00,,---,0.59,VWS V14.01,2013-01-30 01:15:00,
2013-01-29 20:20:00,56.2,54.2,29.50,South,186,8.0,16.0,93,0.00,,---,0.59,VWS V14.01,2013-01-30 01:20:00,
2013-01-29 20:25:00,56.4,54.4,29.49,South,187,6.0,16.0,93,0.00,,---,0.59,VWS V14.01,2013-01-30 01:25:00,
2013-01-29 20:30:00,56.5,54.5,29.48,SSE,163,4.0,4.0,93,0.00,,---,0.59,VWS V14.01,2013-01-30 01:30:00,
2013-01-29 20:35:00,56.5,54.5,29.48,SE,132,10.0,11.0,93,0.00,,---,0.59,VWS V14.01,2013-01-30 01:35:00,
2013-01-29 20:40:00,56.8,54.8,29.48,South,177,7.0,17.0,93,0.00,,---,0.59,VWS V14.01,2013-01-30 01:40:00,
2013-01-29 20:45:00,56.9,54.6,29.48,SSE,153,4.0,17.0,92,0.00,,---,0.59,VWS V14.01,2013-01-30 01:45:00,
2013-01-29 20:50:00,57.0,54.7,29.47,South,173,5.0,22.0,92,0.00,,---,0.59,VWS V14.01,2013-01-30 01:50:00,
2013-01-29 20:55:00,57.0,54.7,29.47,South,181,4.0,22.0,92,0.00,,---,0.59,VWS V14.01,2013-01-30 01:55:00,
2013-01-29 21:00:00,56.9,54.6,29.46,SSW,200,11.0,12.0,92,0.00,,---,0.59,VWS V14.01,2013-01-30 02:00:00,
2013-01-29 21:05:00,57.0,54.7,29.46,South,174,5.0,20.0,92,0.00,,---,0.59,VWS V14.01,2013-01-30 02:05:00,
2013-01-29 21:10:00,57.2,54.9,29.46,SSE,166,3.0,22.0,92,0.00,,---,0.59,VWS V14.01,2013-01-30 02:10:00,
2013-01-29 21:15:00,57.3,55.0,29.46,SSW,195,9.0,22.0,92,0.00,,---,0.59,VWS V14.01,2013-01-30 02:15:00,
2013-01-29 21:20:00,57.5,55.2,29.45,SE,145,7.0,22.0,92,0.00,,---,0.59,VWS V14.01,2013-01-30 02:20:00,
2013-01-29 21:25:00,57.6,55.3,29.45,South,182,11.0,22.0,92,0.00,,---,0.59,VWS V14.01,2013-01-30 02:25:00,
2013-01-29 21:31:00,57.6,55.3,29.44,South,182,7.0,7.0,92,0.00,,---,0.59,VWS V14.01,2013-01-30 02:31:00,
2013-01-29 21:36:00,57.7,55.4,29.44,South,172,6.0,13.0,92,0.00,,---,0.59,VWS V14.01,2013-01-30 02:36:00,
2013-01-29 21:41:00,57.8,55.2,29.43,SE,140,6.0,20.0,91,0.00,,---,0.59,VWS V14.01,2013-01-30 02:41:00,
2013-01-29 21:46:00,58.0,55.7,29.43,South,169,7.0,20.0,92,0.01,,---,0.60,VWS V14.01,2013-01-30 02:46:00,
2013-01-29 21:51:00,57.9,55.6,29.43,SE,137,14.0,20.0,92,0.01,,---,0.60,VWS V14.01,2013-01-30 02:51:00,
2013-01-29 21:56:00,58.0,55.7,29.42,SE,132,6.0,24.0,92,0.01,,---,0.60,VWS V14.01,2013-01-30 02:56:00,
2013-01-29 22:01:00,58.1,55.8,29.41,South,177,8.0,15.0,92,0.02,,---,0.61,VWS V14.01,2013-01-30 03:01:00,
2013-01-29 22:06:00,58.5,55.9,29.41,SSE,167,7.0,31.0,91,0.02,,---,0.61,VWS V14.01,2013-01-30 03:06:00,
2013-01-29 22:11:00,58.5,55.9,29.41,SSE,148,11.0,31.0,91,0.02,,---,0.61,VWS V14.01,2013-01-30 03:11:00,
2013-01-29 22:16:00,58.6,56.0,29.40,SSW,193,16.0,31.0,91,0.02,,---,0.61,VWS V14.01,2013-01-30 03:16:00,
2013-01-29 22:21:00,58.7,56.1,29.39,SE,145,17.0,31.0,91,0.02,,---,0.61,VWS V14.01,2013-01-30 03:21:00,
2013-01-29 22:26:00,58.9,56.0,29.39,South,190,21.0,31.0,90,0.02,,---,0.61,VWS V14.01,2013-01-30 03:26:00,
2013-01-29 22:31:00,58.9,56.0,29.38,South,172,12.0,17.0,90,0.02,,---,0.61,VWS V14.01,2013-01-30 03:31:00,
2013-01-29 22:36:00,58.9,56.3,29.37,SE,137,8.0,24.0,91,0.02,,---,0.61,VWS V14.01,2013-01-30 03:36:00,
2013-01-29 22:41:00,58.9,56.3,29.37,South,187,8.0,24.0,91,0.02,,---,0.61,VWS V14.01,2013-01-30 03:41:00,
2013-01-29 22:46:00,58.9,56.3,29.37,SSW,207,8.0,24.0,91,0.02,,---,0.61,VWS V14.01,2013-01-30 03:46:00,
2013-01-29 22:51:00,58.9,56.3,29.37,SSW,196,14.0,24.0,91,0.03,,---,0.62,VWS V14.01,2013-01-30 03:51:00,
2013-01-29 22:56:00,58.8,56.5,29.37,SSW,208,16.0,24.0,92,0.03,,---,0.62,VWS V14.01,2013-01-30 03:56:00,
2013-01-29 23:01:00,58.9,56.6,29.36,South,182,8.0,16.0,92,0.01,,---,0.62,VWS V14.01,2013-01-30 04:01:00,
2013-01-29 23:06:00,58.9,56.3,29.36,SSW,196,9.0,19.0,91,0.01,,---,0.62,VWS V14.01,2013-01-30 04:06:00,
2013-01-29 23:11:00,58.9,56.6,29.35,SSE,167,4.0,19.0,92,0.01,,---,0.62,VWS V14.01,2013-01-30 04:11:00,
2013-01-29 23:16:00,58.9,56.6,29.36,South,175,14.0,22.0,92,0.01,,---,0.62,VWS V14.01,2013-01-30 04:16:00,
2013-01-29 23:21:00,59.0,56.7,29.35,South,173,11.0,22.0,92,0.01,,---,0.62,VWS V14.01,2013-01-30 04:21:00,
2013-01-29 23:26:00,59.1,56.5,29.34,South,188,9.0,23.0,91,0.01,,---,0.62,VWS V14.01,2013-01-30 04:26:00,
2013-01-29 23:31:00,59.3,56.7,29.34,South,188,11.0,20.0,91,0.01,,---,0.62,VWS V14.01,2013-01-30 04:31:00,
2013-01-29 23:36:00,59.3,56.7,29.33,South,186,10.0,20.0,91,0.01,,---,0.62,VWS V14.01,2013-01-30 04:36:00,
2013-01-29 23:41:00,59.4,56.8,29.33,SSE,159,6.0,21.0,91,0.01,,---,0.62,VWS V14.01,2013-01-30 04:41:00,
2013-01-29 23:46:00,59.5,56.6,29.32,SSE,153,8.0,21.0,90,0.01,,---,0.62,VWS V14.01,2013-01-30 04:46:00,
2013-01-29 23:51:00,59.6,56.7,29.32,SSE,163,4.0,21.0,90,0.01,,---,0.62,VWS V14.01,2013-01-30 04:51:00,
2013-01-29 23:56:00,59.6,56.7,29.31,ENE,77,7.0,21.0,90,0.01,,---,0.62,VWS V14.01,2013-01-30 04:56:00,